Overview Statistics Trail Chart Weather Telemetry Raw packets
 

This is the latest recevied weather packets stored in our database for station/object SP3ZBZ-13. If no packets are shown the sender has not sent any weather packets the latest 10 day(s).

<< 3 4 5 6 7 8 9 >>
Time Temp. Humidity Pressure Rain* Wind** Luminosity Snow
1788507577 18.33° C 77% 1006.2 hPa - - 184 W/m² -
1788506676 18.33° C 78% 1006.4 hPa - - 130 W/m² -
1788505775 18.33° C 78% 1006.2 hPa - - 199 W/m² -
1788504874 17.78° C 79% 1006.3 hPa - - 267 W/m² -
1788503973 17.78° C 81% 1006.3 hPa - - 214 W/m² -
1788503072 17.22° C 82% 1006.4 hPa - - 122 W/m² -
1788502170 17.22° C 83% 1006.5 hPa - - 119 W/m² -
1788501270 17.22° C 84% 1006.5 hPa - - 75 W/m² -
1788500368 17.22° C 85% 1006.7 hPa - - 59 W/m² -
1788499467 17.22° C 86% 1007 hPa - - 45 W/m² -
1788498566 17.22° C 86% 1006.8 hPa - - 26 W/m² -
1788497664 17.22° C 86% 1007.1 hPa - - 10 W/m² -
1788496763 17.22° C 86% 1007.2 hPa - - 5 W/m² -
1788495862 16.67° C 86% 1007 hPa - - 4 W/m² -
1788494961 16.67° C 87% 1006.8 hPa - - 1 W/m² -
1788494060 17.22° C 86% 1006.9 hPa - - - -
1788493159 17.22° C 87% 1007.1 hPa - - - -
1788492258 17.22° C 87% 1007.2 hPa - - - -
1788491356 17.22° C 87% 1007.2 hPa - - - -
1788490455 16.67° C 87% 1007.2 hPa - - - -
1788489555 16.67° C 87% 1007.3 hPa - - - -
1788488653 17.22° C 87% 1007.2 hPa - - - -
1788487752 17.22° C 87% 1007.3 hPa - - - -
1788486851 17.22° C 87% 1007.5 hPa - - - -
1788485950 16.67° C 88% 1007.4 hPa - - - -

* Rain since midnight (hover to see other rain measurements)
** Current wind speed in m/s (hover to see current wind gust speed)